TimeCDT,TemperatureF,Dew PointF,Humidity,Sea Level PressureIn,VisibilityMPH,Wind Direction,Wind SpeedMPH,Gust SpeedMPH,PrecipitationIn,Events,Conditions,WindDirDegrees,DateUTC
12:13 AM,41.0,21.2,45,30.17,10.0,WNW,3.5,-,N/A,,Clear,300,2013-05-12 05:13:00
12:33 AM,39.2,21.2,49,30.17,10.0,NW,3.5,-,N/A,,Clear,310,2013-05-12 05:33:00
12:52 AM,41.0,21.2,45,30.18,10.0,NW,4.6,-,N/A,,Clear,320,2013-05-12 05:52:00
1:13 AM,41.0,21.2,45,30.18,10.0,NNW,4.6,-,N/A,,Clear,330,2013-05-12 06:13:00
1:33 AM,39.2,23.0,52,30.19,10.0,NNW,4.6,-,N/A,,Clear,330,2013-05-12 06:33:00
1:52 AM,37.4,24.8,60,30.19,10.0,NNW,3.5,-,N/A,,Clear,340,2013-05-12 06:52:00
2:13 AM,37.4,23.0,56,30.18,10.0,Calm,Calm,-,N/A,,Clear,0,2013-05-12 07:13:00
2:32 AM,37.4,24.8,60,30.18,10.0,Calm,Calm,-,N/A,,Clear,0,2013-05-12 07:32:00
2:53 AM,37.4,24.8,60,30.18,10.0,Calm,Calm,-,N/A,,Clear,0,2013-05-12 07:53:00
3:13 AM,35.6,24.8,65,30.18,10.0,Calm,Calm,-,N/A,,Clear,0,2013-05-12 08:13:00
3:32 AM,35.6,24.8,65,30.18,10.0,Calm,Calm,-,N/A,,Clear,0,2013-05-12 08:32:00
3:53 AM,35.6,24.8,65,30.18,10.0,WNW,3.5,-,N/A,,Clear,290,2013-05-12 08:53:00
4:32 AM,35.6,24.8,65,30.18,10.0,Calm,Calm,-,N/A,,Clear,0,2013-05-12 09:32:00
4:53 AM,33.8,24.8,70,30.19,10.0,Calm,Calm,-,N/A,,Clear,0,2013-05-12 09:53:00
5:13 AM,33.8,24.8,70,30.19,10.0,Calm,Calm,-,N/A,,Clear,0,2013-05-12 10:13:00
5:19 AM,33.8,24.8,70,30.19,10.0,WNW,3.5,-,N/A,,Clear,300,2013-05-12 10:19:00
5:41 AM,33.8,24.8,70,30.19,10.0,WNW,2.3,-,N/A,,Clear,290,2013-05-12 10:41:00
6:01 AM,33.8,24.8,70,30.19,10.0,WNW,2.3,-,N/A,,Clear,290,2013-05-12 11:01:00
6:21 AM,33.8,24.8,70,30.19,10.0,WNW,1.2,-,N/A,,Clear,290,2013-05-12 11:21:00
6:41 AM,35.6,24.8,65,30.20,10.0,WNW,2.3,-,N/A,,Clear,290,2013-05-12 11:41:00
7:01 AM,35.6,24.8,65,30.20,10.0,WNW,1.2,-,N/A,,Clear,300,2013-05-12 12:01:00
7:21 AM,37.4,26.6,65,30.20,10.0,NNW,3.5,-,N/A,,Clear,330,2013-05-12 12:21:00
7:41 AM,39.2,24.8,56,30.21,10.0,NW,4.6,-,N/A,,Clear,310,2013-05-12 12:41:00
8:01 AM,41.0,24.8,53,30.21,10.0,NNW,8.1,-,N/A,,Clear,330,2013-05-12 13:01:00
8:21 AM,42.8,23.0,46,30.21,10.0,NNW,9.2,-,N/A,,Clear,330,2013-05-12 13:21:00
8:41 AM,42.8,21.2,42,30.22,10.0,NNW,6.9,-,N/A,,Clear,330,2013-05-12 13:41:00
9:01 AM,44.6,21.2,39,30.22,10.0,NNW,9.2,-,N/A,,Clear,340,2013-05-12 14:01:00
9:21 AM,44.6,21.2,39,30.22,10.0,NNW,8.1,-,N/A,,Clear,340,2013-05-12 14:21:00
9:41 AM,46.4,21.2,37,30.21,10.0,North,9.2,16.1,N/A,,Clear,350,2013-05-12 14:41:00
10:01 AM,46.4,21.2,37,30.21,10.0,NNW,12.7,20.7,N/A,,Clear,340,2013-05-12 15:01:00
10:41 AM,48.2,17.6,30,30.21,10.0,NW,11.5,17.3,N/A,,Clear,320,2013-05-12 15:41:00
11:01 AM,48.2,19.4,32,30.21,10.0,NW,10.4,16.1,N/A,,Clear,320,2013-05-12 16:01:00
11:21 AM,48.2,19.4,32,30.21,10.0,NNW,10.4,18.4,N/A,,Clear,330,2013-05-12 16:21:00
11:41 AM,50.0,17.6,28,30.20,10.0,North,18.4,23.0,N/A,,Clear,350,2013-05-12 16:41:00
12:01 PM,51.8,15.8,24,30.20,10.0,NNW,8.1,19.6,N/A,,Clear,330,2013-05-12 17:01:00
12:21 PM,51.8,17.6,26,30.20,10.0,NW,8.1,18.4,N/A,,Clear,310,2013-05-12 17:21:00
12:41 PM,51.8,17.6,26,30.18,10.0,NNW,4.6,16.1,N/A,,Clear,330,2013-05-12 17:41:00
1:01 PM,53.6,15.8,22,30.18,10.0,NW,9.2,-,N/A,,Clear,310,2013-05-12 18:01:00
1:21 PM,53.6,15.8,22,30.17,10.0,WNW,8.1,16.1,N/A,,Clear,290,2013-05-12 18:21:00
1:41 PM,53.6,15.8,22,30.17,10.0,West,6.9,-,N/A,,Clear,280,2013-05-12 18:41:00
2:01 PM,55.4,14.0,20,30.16,10.0,NNW,11.5,18.4,N/A,,Clear,330,2013-05-12 19:01:00
2:21 PM,55.4,14.0,20,30.15,10.0,NW,10.4,19.6,N/A,,Clear,320,2013-05-12 19:21:00
2:41 PM,57.2,14.0,18,30.15,10.0,NW,9.2,17.3,N/A,,Clear,320,2013-05-12 19:41:00
3:01 PM,57.2,10.4,16,30.14,10.0,WNW,12.7,17.3,N/A,,Clear,290,2013-05-12 20:01:00
3:21 PM,57.2,12.2,17,30.13,10.0,WNW,12.7,17.3,N/A,,Clear,300,2013-05-12 20:21:00
3:41 PM,59.0,10.4,15,30.13,10.0,NW,10.4,18.4,N/A,,Clear,310,2013-05-12 20:41:00
4:01 PM,59.0,10.4,15,30.12,10.0,NNW,10.4,-,N/A,,Clear,330,2013-05-12 21:01:00
4:21 PM,59.0,6.8,13,30.12,10.0,NNW,11.5,17.3,N/A,,Clear,330,2013-05-12 21:21:00
4:41 PM,59.0,8.6,14,30.11,10.0,NW,10.4,-,N/A,,Clear,320,2013-05-12 21:41:00
5:01 PM,59.0,6.8,13,30.11,10.0,NNW,9.2,16.1,N/A,,Clear,340,2013-05-12 22:01:00
5:21 PM,60.8,6.8,12,30.10,10.0,NNW,8.1,18.4,N/A,,Clear,340,2013-05-12 22:21:00
5:41 PM,59.0,3.2,11,30.10,10.0,NNW,16.1,20.7,N/A,,Clear,330,2013-05-12 22:41:00
6:01 PM,59.0,5.0,12,30.10,10.0,NNW,12.7,18.4,N/A,,Clear,330,2013-05-12 23:01:00
6:21 PM,59.0,5.0,12,30.10,10.0,WNW,9.2,-,N/A,,Clear,300,2013-05-12 23:21:00
6:41 PM,59.0,6.8,13,30.09,10.0,NNW,8.1,-,N/A,,Clear,340,2013-05-12 23:41:00
7:01 PM,59.0,5.0,12,30.09,10.0,NNW,10.4,-,N/A,,Clear,330,2013-05-13 00:01:00
7:21 PM,57.2,6.8,13,30.09,10.0,NNW,5.8,-,N/A,,Clear,340,2013-05-13 00:21:00
7:41 PM,57.2,6.8,13,30.09,10.0,NNW,6.9,-,N/A,,Clear,330,2013-05-13 00:41:00
8:01 PM,55.4,10.4,17,30.09,10.0,NNW,4.6,-,N/A,,Clear,340,2013-05-13 01:01:00
8:21 PM,53.6,12.2,19,30.09,10.0,NNW,3.5,-,N/A,,Clear,330,2013-05-13 01:21:00
8:41 PM,53.6,12.2,19,30.10,10.0,NNW,2.3,-,N/A,,Clear,330,2013-05-13 01:41:00
9:01 PM,53.6,12.2,19,30.10,10.0,NNW,1.2,-,N/A,,Clear,330,2013-05-13 02:01:00
9:21 PM,51.8,15.8,24,30.11,10.0,NW,1.2,-,N/A,,Clear,310,2013-05-13 02:21:00
9:41 PM,48.2,15.8,27,30.11,10.0,Calm,Calm,-,N/A,,Clear,320,2013-05-13 02:41:00
10:01 PM,48.2,17.6,30,30.12,10.0,Calm,Calm,-,N/A,,Clear,290,2013-05-13 03:01:00
10:21 PM,48.2,23.0,37,30.12,10.0,Calm,Calm,-,N/A,,Clear,260,2013-05-13 03:21:00
10:41 PM,46.4,26.6,46,30.12,10.0,Calm,Calm,-,N/A,,Clear,220,2013-05-13 03:41:00
11:01 PM,44.6,26.6,49,30.12,10.0,Calm,Calm,-,N/A,,Clear,210,2013-05-13 04:01:00
11:21 PM,44.6,23.0,43,30.11,10.0,SE,1.2,-,N/A,,Clear,140,2013-05-13 04:21:00
11:41 PM,42.8,24.8,49,30.11,10.0,Calm,Calm,-,N/A,,Clear,140,2013-05-13 04:41:00